AirNav   Air Wisconsin pilot careers
 
 564 users online  

KKIC Mesa Del Rey Airport
King City, California, USA

GOING TO KING CITY?


FAA INFORMATION EFFECTIVE 24 MAY 2018

Location

FAA Identifier: KIC
Lat/Long: 36-13-42.8000N / 121-07-16.7000W
36-13.713333N / 121-07.278333W
36.2285556 / -121.1213056
(estimated)
Elevation: 374 ft. / 114.0 m (surveyed)
Variation: 15E (1985)
From city: 1 mile NE of KING CITY, CA
Time zone: UTC -7 (UTC -8 during Standard Time)
Zip code: 93930

Airport Operations

Airport use: Open to the public
Activation date: 04/1940
Control tower: no
ARTCC: OAKLAND CENTER
FSS: OAKLAND FLIGHT SERVICE STATION
NOTAMs facility: OAK (NOTAM-D service available)
Attendance: MON-FRI 0800-1700
Pattern altitude: 1174 ft. MSL
Wind indicator: lighted
Segmented circle: yes
Lights: SS-SR
Beacon: white-green (lighted land airport)
Operates sunset to sunrise.

Airport Communications

CTAF: 122.9
WX AWOS-AV at 09CA (1.5 nm S): 120.800 (831-386-7456)

Nearby radio navigation aids

VOR radial/distance  VOR name  Freq  Var
ROMr267/(22.7)PRIEST VOR110.0016E
BSRr068/25.4BIG SUR VORTAC114.0016E
PXNr194/33.6PANOCHE VORTAC112.6016E
SNSr121/35.0SALINAS VORTAC117.3017E

 
NDB name  Hdg/Dist  Freq  Var  ID
HUNTER LIGGETT357/16.420915EHGT .... --. -
CHUALAR117/23.226316EUAD ..- .- -..

Airport Services

Fuel available: 100LL JET-A
FUEL AVBL 24 HRS.
Parking: tiedowns
Airframe service: MAJOR
Powerplant service: MAJOR
Bottled oxygen: NONE
Bulk oxygen: NONE

Runway Information

Runway 11/29

Dimensions: 4479 x 100 ft. / 1365 x 30 m
Surface: asphalt, in fair condition
Weight bearing capacity: 
Single wheel: 12.0
Runway edge lights: medium intensity
RUNWAY 11  RUNWAY 29
Latitude: 36-13.952750N36-13.472885N
Longitude: 121-07.624580W121-06.932290W
Elevation: 369.4 ft.374.0 ft.
Gradient: 0.1%0.1%
Traffic pattern: leftleft
Markings: basic, in good conditionbasic, in good condition
Visual slope indicator: 2-light PAPI on left (3.00 degrees glide path)
Runway end identifier lights: noyes
Touchdown point: yes, no lightsyes, no lights
Obstructions: 4 ft. berm, 280 ft. from runway, 20:1 slope to clear7 ft. road, 400 ft. from runway, 28:1 slope to clear

Airport Ownership and Management from official FAA records

Ownership: Publicly-owned
Owner: CITY OF KING CITY
212 SOUTH VANDERHURST AVE
KING CITY, CA 93930-2922
Phone 831-386-5925
Manager: STEVEN ADAMS
212 SOUTH VANDERHURST AVE
KING CITY, CA 93930-2922
Phone (831) 386-5925
ARPT PHONE 831-385-6575 - KING CITY AVN.

Airport Operational Statistics

Aircraft based on the field: 18
Single engine airplanes: 15
Multi engine airplanes: 2
Helicopters: 1
    
Aircraft operations: avg 22/day *
57% local general aviation
43% transient general aviation
* for 12-month period ending 27 September 2017

Additional Remarks

FOR TOLL FREE PILOT WEATHER BRIEF OAKLAND FSS 1-800-WX-BRIEF.
INTENSIVE AEROBATIC ACTIVITY INVOF AIRPORT.

Instrument Procedures

There are no published instrument procedures at KKIC.

Some nearby airports with instrument procedures:

KHGT - Tusi Army Heliport (Hunter Liggett) (15 nm S)
KSNS - Salinas Municipal Airport (35 nm NW)
KMRY - Monterey Regional Airport (41 nm NW)
KPRB - Paso Robles Municipal Airport (41 nm SE)
KOAR - Marina Municipal Airport (41 nm NW)
 
Loc | Ops | Rwys | IFR | FBO | Links
Com | Nav | Svcs | Stats | Notes

AirNav Hotels Sweepstakes
 
Area around KKIC (Mesa Del Rey Airport)
 
Road maps at: MapQuest Bing Google
 
Aerial photo
WARNING: Photo may not be current or correct
Aerial photo of KKIC (Mesa Del Rey Airport)
Do you have a better or more recent aerial photo of Mesa Del Rey Airport that you would like to share? If so, please send us your photo.

 
Sectional chart

 
Airport distance calculator
Flying to Mesa Del Rey Airport? Find the distance to fly.

From to KKIC

Sunrise and sunset
Times for 20-Jun-2018
 Local
(UTC-7)
 Zulu
(UTC)
Morning civil twilight05:1812:18
Sunrise05:4812:48
Sunset20:2403:24
Evening civil twilight20:5403:54

Current date and time
Zulu (UTC)  21-Jun-2018 04:53:42
Local (UTC-7)  20-Jun-2018 21:53:42
 
METAR
KSNS 
35nm NW 
210353Z AUTO 30012KT 10SM CLR 14/11 A2999 RMK AO2 SLP166 T01390106 $
KOAR 
41nm NW 
134.025 831-384-2967
No observation available
KMRY 
41nm NW 
210401Z AUTO 23008KT 10SM OVC008 13/11 A3003 RMK AO2 T01280106 $
KPRB 
41nm SE 
210353Z AUTO 31015KT 10SM CLR 23/05 A2991 RMK AO2 SLP122 T02330050
KCVH 
42nm N 
210435Z AUTO 00000KT 10SM CLR 17/10 A2999 RMK A01
TAF
KSNS 
35nm NW 
210354Z 2104/2124 31013KT P6SM SKC FM210600 30009KT P6SM BKN008 FM210700 30006KT P6SM OVC005 FM211600 29003KT P6SM SCT010 FM211800 29012KT P6SM SKC
KMRY 
41nm NW 
210047Z 2101/2124 26010KT P6SM SCT010 FM210300 24006KT P6SM BKN007 FM210600 22004KT P6SM OVC003 FM211700 28005KT P6SM SCT007 FM211900 28008KT P6SM SKC
KPRB 
41nm SE 
201743Z 2018/2118 32008KT P6SM SKC FM201900 30007KT P6SM SKC FM202300 30015G22KT P6SM SKC FM210400 30010KT P6SM SKC FM211600 32006KT P6SM SKC
NOTAMs
Click for the latest NOTAMs
NOTAMs are issued by the DoD/FAA and will open in a separate window not controlled by AirNav.

 

 
 

FBO, Fuel Providers, and Aircraft Ground Support

  
 Business Name 
 
 Contact 
 
 Services / Description 
 
Fuel Prices
 
Comments
  
Aviation Specialties Unlimited 831-385-6575 Aviation fuel, Aircraft parking (ramp or tiedown), Aircraft maintenance, Aircraft painting, Public telephone, Pilots lounge / snooze room, Restrooms

More info about Aviation Specialties Unlimited
Shell
100LL Jet A
SS $4.99 $3.99 
 Updated 31-May-2018
 
   write
SS=Self service
Update Fuel Prices
 

Would you like to see your business listed on this page?

 If your business provides an interesting product or service to pilots, flight crews, aircraft, or users of the Mesa Del Rey Airport, you should consider listing it here.  To start the listing process, click on the button below
 
Add a business
 

Other Pages about Mesa Del Rey Airport

Mesa Del Rey Airport
 
Update a link
 
Copyright © AirNav, LLC. All rights reserved. Privacy Policy  Contact